カタログに戻る

STARLINK-3688

運用中通信VLEO
NORAD 52310·PAYLOAD·🇺🇸 United States

打ち上げ Apr 21, 2022 から Cape Canaveral Space Force Station

Loading…

次のパス (今後24時間)

TLE

最新Source: CelesTrak SupGP

元期: Sep 14, 2026, 13:59 UTC

1 52310C 22041BB  26257.58312500  .00037263  00000+0  11983-2 0  2577
2 52310  53.1582 307.3214 0001173  79.2837  77.7002 15.31683416    17

AllMySatでSTARLINK-3688をリアルタイム追跡

Download on the App Store